CZ-2C DEB

Satellite information

Favourite Embed

Satellite Type and Status

DEBRISIN ORBIT

Key statistics

Satellite CZ-2C DEB at a glance.

Uptime

5235

Days in orbit

Revolutions

≈ 15.1

Per day

Orbit

SSO

Sun Synchronous Orbit

Inclination

98.2

Latest

Satellite identification and parameters

Extended collection of information and parameters for CZ-2C DEB.

Object identification

Identified? True

Debris? True

Object name: CZ-2C DEB

International designator: 2011-030E

Object number (NORAD): 37734

Object ID (CCSDS): 37734

Country: PEOPLES REPUBLIC OF CHINA (PRC)

Current information (Y/N): Y

RCS size: SMALL

Orbital parameters

Period: 95.49 minutes

Inclination: 98.1875 deg

SMA: 6920.405 km

Apoapsis: 568.516 km

Periapsis: 516.023 km

RAAN: 272.5847 deg

Eccentricy: 0.0037926

Argument of periapsis: 23.9033 deg

Mean anomaly: 148.5976 deg

Mean motion: 15.08014488 rev/day

Mean motion (dot): 0.0004565 rev/day2

B* drag term: 0.0029059 1/REarth

Two-line elements (TLE)

Creation date: Nov. 3, 2025, 11:16 p.m.

Reference frame: TEME

Reference center: EARTH

Epoch: Nov. 3, 2025, 4:19 p.m. UTC

TLE line 0: 0 CZ-2C DEB

TLE line 1: 1 37734U 11030E 25307.68013605 .00045650 00000-0 29059-2 0 9992

TLE line 2: 2 37734 98.1875 272.5847 0037926 23.9033 148.5976 15.08014488763157

Live tracking on map

Real-time ground track for satellite CZ-2C DEB.

In-orbit conjunctions

A list of the most updated potential collisions computed for object CZ-2C DEB.

Target Orbit TCA Probability of collision Miss distance Type
TIROS 1 LEO 2024-06-18 16:05:16 0.0006676289 422.0 (m) PAYLOAD

Associated space launch

CZ-2C DEB was lifted into orbit during the mission ‘Long March 2C | Shijian 10-03’, on board a Long March 2 space rocket.

The launch took place on July 6, 2011, 4:28 a.m. from Launch Area 4 (SLS-2 / 603).

For more information about the launch, click the button.

Launch to space Long March 2C | Shijian 10-03
Long March 2C | Shijian 10-03

Agency: N/A

Status: Launch Successful

Launch date: July 6, 2011, 4:28 a.m. UTC

Rocket: Long March 2

Launch pad: Launch Area 4 (SLS-2 / 603)

Location: Jiuquan Satellite Launch Center, People's Republic of China

...

Latest news about this satellite

There are no fresh news available about this satellite. Check back as we update our databases every day.


Newsletter sign-up

Weekly statistics, charts and insights to help you stay on top of the space industry.